Temp
-16 -16 -16 -17 -16 -16 -16 -16 -16 -15 -15 -16 -16 -15 -15 -15 -14 -14 -14 -15 -15 -15 -14 -14 -15 -15 -16 -17 -18 -18 -18 -18 -18 -18 -19 -19 -19 -20 -20 -20 -20 -20 -21 -22
-16 -16 -16 -16 -16 -16 -16 -17 -17 -16 -16 -16 -16 -15 -15 -15 -15 -15 -15 -15 -15 -15 -15 -16 -16 -16 -17 -17 -17 -17 -18 -18 -19 -19 -19 -19 -19 -20 -20 -20 -21 -22 -22 -23
-16 -16 -16 -15 -15 -16 -17 -17 -16 -16 -16 -16 -16 -15 -15 -16 -16 -16 -16 -16 -16 -16 -16 -16 -17 -17 -17 -17 -17 -18 -18 -18 -19 -19 -20 -20 -20 -20 -20 -21 -22 -23 -23 -24
-16 -16 -15 -16 -16 -16 -16 -16 -16 -16 -16 -16 -16 -16 -16 -16 -16 -16 -16 -16 -16 -16 -17 -17 -17 -17 -17 -17 -18 -18 -18 -19 -20 -20 -20 -20 -20 -20 -21 -22 -23 -24 -24 -25
-16 -16 -15 -16 -16 -16 -16 -16 -16 -16 -16 -16 -16 -16 -16 -16 -16 -16 -16 -17 -17 -16 -16 -17 -17 -17 -18 -18 -19 -19 -19 -20 -20 -20 -20 -20 -21 -21 -22 -24 -24 -25 -25 -25
-16 -16 -16 -16 -16 -16 -16 -16 -16 -16 -16 -16 -16 -16 -16 -15 -16 -16 -16 -16 -16 -16 -16 -17 -17 -18 -18 -19 -19 -20 -20 -20 -20 -20 -20 -21 -22 -22 -23 -24 -24 -25 -25 -26
-16 -16 -16 -16 -16 -16 -16 -16 -16 -16 -16 -16 -16 -16 -15 -15 -16 -16 -16 -16 -16 -17 -17 -17 -18 -18 -19 -19 -20 -20 -20 -20 -21 -21 -22 -22 -23 -23 -24 -24 -25 -26 -27 -28
-16 -16 -16 -16 -16 -16 -16 -15 -16 -16 -16 -15 -15 -15 -15 -15 -15 -16 -16 -17 -17 -18 -18 -18 -18 -19 -19 -20 -20 -21 -21 -21 -21 -22 -22 -23 -23 -24 -24 -25 -26 -27 -29 -29
-16 -16 -16 -15 -15 -15 -16 -16 -16 -15 -15 -15 -15 -15 -16 -16 -16 -16 -17 -17 -18 -18 -18 -19 -19 -20 -20 -20 -20 -21 -21 -21 -22 -22 -23 -23 -24 -24 -24 -26 -27 -29 -29 -30
-16 -16 -15 -15 -15 -15 -16 -16 -16 -16 -16 -16 -16 -16 -16 -16 -16 -17 -17 -18 -18 -18 -18 -19 -20 -20 -20 -20 -20 -21 -21 -22 -22 -23 -23 -23 -24 -24 -25 -27 -29 -29 -30 -30
-16 -16 -16 -16 -16 -16 -16 -15 -15 -15 -16 -16 -16 -16 -16 -17 -17 -18 -18 -18 -18 -19 -19 -20 -20 -20 -20 -21 -21 -21 -22 -23 -23 -23 -24 -24 -25 -26 -27 -29 -30 -30 -30 -30
-16 -16 -16 -16 -16 -16 -16 -16 -16 -16 -16 -16 -16 -17 -17 -17 -18 -18 -18 -19 -19 -19 -20 -20 -20 -20 -21 -21 -21 -22 -23 -23 -23 -24 -24 -25 -26 -27 -29 -30 -30 -31 -31 -31
-17 -17 -17 -17 -17 -17 -16 -16 -16 -17 -17 -17 -17 -17 -18 -18 -19 -19 -19 -19 -20 -20 -21 -21 -21 -21 -21 -22 -23 -23 -24 -24 -24 -25 -26 -26 -27 -28 -29 -30 -31 -31 -31 -31
-17 -17 -17 -17 -17 -17 -17 -17 -17 -17 -17 -17 -18 -18 -19 -19 -19 -19 -20 -20 -20 -21 -21 -21 -21 -22 -22 -23 -24 -24 -24 -24 -25 -26 -27 -28 -29 -30 -31 -31 -31 -31 -31 -31
-17 -17 -17 -17 -17 -17 -17 -18 -18 -18 -18 -18 -19 -19 -20 -20 -20 -20 -20 -21 -21 -21 -21 -21 -22 -23 -23 -24 -24 -24 -25 -25 -26 -27 -28 -29 -30 -31 -31 -31 -31 -31 -31 -31
-17 -17 -17 -17 -17 -18 -18 -18 -18 -19 -19 -19 -20 -20 -20 -20 -20 -21 -21 -22 -22 -21 -22 -22 -23 -24 -24 -25 -25 -25 -26 -27 -27 -29 -30 -31 -31 -31 -31 -31 -31 -31 -31 -31
-18 -18 -18 -18 -18 -18 -19 -19 -19 -19 -20 -20 -20 -20 -20 -21 -21 -22 -22 -22 -22 -22 -23 -24 -24 -25 -25 -25 -26 -26 -27 -28 -29 -31 -31 -31 -31 -31 -31 -31 -31 -31 -31 -32
-19 -19 -18 -18 -19 -19 -19 -19 -20 -20 -20 -20 -21 -21 -21 -22 -22 -22 -22 -22 -23 -23 -24 -25 -25 -25 -25 -26 -27 -28 -29 -30 -31 -31 -31 -31 -31 -31 -31 -31 -32 -32 -32 -32
-19 -19 -19 -19 -19 -19 -20 -20 -21 -20 -21 -21 -21 -22 -22 -22 -22 -22 -23 -24 -24 -25 -25 -25 -26 -26 -27 -28 -29 -30 -31 -32 -32 -31 -31 -31 -31 -31 -32 -32 -32 -32 -33 -33
-19 -19 -19 -20 -20 -21 -21 -21 -20 -21 -21 -22 -22 -22 -22 -22 -23 -24 -24 -25 -25 -26 -26 -26 -27 -28 -29 -30 -31 -32 -32 -32 -31 -31 -31 -31 -32 -32 -32 -32 -33 -33 -34 -34
-20 -20 -21 -21 -21 -21 -21 -21 -21 -22 -22 -22 -22 -22 -22 -23 -24 -25 -25 -26 -26 -26 -27 -28 -29 -30 -31 -31 -32 -32 -32 -32 -31 -32 -32 -32 -32 -33 -33 -33 -34 -34 -34 -34
-21 -21 -21 -21 -21 -21 -21 -22 -22 -22 -22 -22 -22 -23 -24 -25 -25 -26 -26 -27 -27 -28 -29 -30 -31 -31 -32 -32 -32 -32 -32 -32 -32 -32 -32 -33 -33 -34 -34 -34 -34 -35 -35 -35
-21 -21 -21 -21 -22 -22 -22 -22 -23 -22 -23 -24 -25 -25 -26 -26 -26 -27 -27 -28 -29 -30 -31 -31 -32 -32 -32 -32 -32 -32 -32 -32 -33 -33 -34 -34 -34 -34 -34 -35 -35 -35 -35 -34
-21 -21 -22 -22 -22 -22 -22 -22 -23 -24 -25 -25 -26 -26 -27 -27 -28 -28 -29 -30 -31 -32 -32 -32 -32 -32 -32 -32 -33 -33 -33 -33 -34 -34 -34 -34 -35 -35 -35 -35 -35 -34 -34 -35
-22 -22 -22 -23 -23 -23 -23 -24 -25 -25 -26 -26 -27 -27 -28 -29 -30 -31 -32 -32 -32 -32 -32 -32 -32 -33 -33 -33 -33 -33 -33 -34 -34 -34 -35 -36 -36 -36 -35 -35 -35 -36 -36 -36
-23 -23 -23 -24 -25 -26 -26 -26 -26 -26 -27 -27 -28 -29 -30 -31 -32 -32 -32 -32 -33 -32 -32 -33 -33 -33 -33 -34 -34 -34 -34 -34 -34 -35 -36 -36 -36 -35 -35 -36 -37 -38 -39 -39
-24 -25 -26 -26 -26 -26 -26 -27 -27 -27 -28 -29 -30 -31 -32 -33 -33 -33 -33 -33 -33 -33 -33 -33 -33 -33 -34 -35 -36 -36 -35 -35 -35 -36 -36 -36 -35 -36 -36 -37 -39 -40 -40 -41
Height
5735 5737 5737 5736 5739 5740 5738 5739 5738 5741 5739 5741 5740 5740 5739 5739 5739 5739 5739 5737 5733 5730 5727 5723 5720 5716 5711 5705 5701 5695 5691 5684 5678 5673 5667 5661 5654 5648 5641 5633 5625 5615 5604 5593
5729 5731 5731 5731 5731 5735 5734 5734 5733 5734 5734 5733 5732 5733 5735 5735 5732 5729 5727 5726 5723 5719 5716 5714 5710 5705 5699 5694 5689 5684 5678 5673 5668 5662 5655 5649 5642 5635 5628 5619 5608 5597 5586 5577
5723 5724 5723 5723 5728 5726 5727 5726 5725 5727 5728 5728 5728 5728 5727 5725 5724 5721 5719 5718 5716 5714 5711 5705 5699 5694 5689 5684 5679 5673 5668 5662 5656 5649 5643 5636 5629 5621 5612 5601 5592 5581 5571 5561
5715 5717 5715 5721 5719 5719 5720 5720 5721 5721 5723 5724 5723 5722 5720 5719 5716 5714 5712 5709 5706 5703 5699 5693 5688 5682 5677 5672 5667 5661 5655 5650 5644 5638 5631 5624 5615 5604 5594 5584 5575 5567 5556 5545
5708 5710 5711 5713 5713 5714 5714 5714 5715 5716 5717 5717 5716 5715 5713 5711 5709 5706 5703 5700 5696 5692 5686 5681 5676 5671 5666 5660 5654 5648 5643 5638 5632 5625 5616 5609 5599 5587 5578 5570 5560 5551 5541 5531
5702 5703 5704 5707 5707 5708 5709 5709 5710 5711 5711 5710 5710 5708 5706 5704 5701 5697 5693 5689 5683 5678 5674 5671 5667 5661 5655 5648 5642 5636 5631 5624 5618 5610 5603 5594 5586 5579 5567 5557 5546 5536 5526 5517
5696 5696 5698 5701 5701 5702 5704 5709 5706 5705 5704 5705 5703 5702 5699 5696 5693 5689 5683 5678 5673 5668 5663 5658 5652 5647 5641 5636 5630 5625 5618 5610 5604 5597 5589 5580 5571 5562 5552 5541 5531 5521 5513 5504
5691 5691 5694 5695 5696 5698 5700 5700 5700 5699 5698 5696 5695 5693 5690 5687 5682 5677 5671 5666 5661 5656 5651 5646 5640 5635 5629 5623 5618 5612 5606 5598 5590 5582 5573 5564 5556 5545 5535 5526 5515 5505 5497 5489
5688 5689 5689 5690 5693 5694 5694 5694 5692 5691 5689 5687 5685 5682 5678 5674 5669 5664 5659 5654 5649 5644 5638 5632 5626 5621 5616 5611 5605 5599 5591 5583 5575 5567 5559 5549 5540 5530 5519 5507 5498 5490 5483 5476
5684 5685 5685 5686 5687 5687 5686 5685 5683 5681 5678 5676 5674 5670 5666 5661 5656 5651 5646 5641 5636 5631 5625 5619 5614 5609 5603 5597 5591 5584 5576 5568 5560 5551 5543 5534 5523 5512 5502 5492 5483 5474 5467 5460
5678 5679 5679 5679 5678 5678 5677 5675 5673 5671 5668 5665 5662 5658 5653 5649 5644 5639 5634 5629 5624 5618 5612 5607 5602 5597 5591 5583 5575 5567 5559 5552 5544 5535 5526 5516 5505 5495 5485 5476 5468 5461 5453 5445
5671 5671 5670 5670 5668 5666 5665 5663 5662 5659 5656 5652 5648 5644 5640 5636 5631 5626 5621 5615 5610 5604 5599 5594 5589 5582 5575 5567 5559 5552 5544 5535 5526 5517 5507 5498 5488 5479 5467 5459 5452 5444 5437 5431
5665 5663 5662 5661 5659 5658 5655 5653 5650 5647 5644 5640 5635 5631 5627 5622 5617 5612 5607 5601 5596 5591 5586 5580 5573 5566 5559 5552 5545 5537 5529 5519 5510 5500 5490 5480 5470 5460 5454 5447 5436 5429 5418 5413
5655 5654 5654 5652 5650 5648 5645 5642 5638 5635 5631 5627 5623 5618 5614 5609 5604 5599 5593 5588 5583 5577 5571 5564 5557 5551 5544 5537 5529 5521 5512 5502 5493 5483 5471 5461 5450 5441 5433 5427 5423 5419 5407 5394
5645 5643 5642 5640 5638 5635 5633 5630 5626 5622 5619 5615 5610 5606 5601 5596 5591 5585 5579 5574 5568 5562 5556 5549 5541 5535 5527 5519 5511 5502 5492 5482 5472 5463 5453 5443 5434 5425 5418 5410 5403 5398 5392 5385
5633 5631 5629 5628 5626 5623 5620 5616 5614 5610 5605 5601 5596 5592 5587 5581 5575 5570 5564 5559 5553 5547 5540 5532 5525 5517 5509 5501 5492 5483 5473 5461 5451 5441 5432 5423 5415 5407 5399 5392 5384 5376 5369 5363
5619 5619 5617 5615 5613 5609 5606 5604 5600 5595 5591 5586 5582 5577 5571 5566 5561 5556 5551 5544 5537 5530 5523 5515 5508 5499 5491 5483 5473 5464 5454 5444 5433 5423 5414 5406 5397 5389 5379 5370 5361 5353 5346 5340
5609 5607 5605 5602 5600 5597 5593 5589 5585 5581 5576 5571 5566 5561 5556 5552 5547 5541 5533 5526 5519 5513 5506 5497 5489 5481 5473 5463 5453 5443 5434 5424 5415 5406 5397 5387 5377 5368 5358 5348 5340 5332 5327 5320
5596 5594 5592 5590 5586 5583 5579 5575 5571 5566 5561 5556 5552 5547 5542 5537 5531 5524 5516 5508 5502 5495 5489 5480 5471 5461 5453 5444 5434 5424 5415 5406 5396 5386 5376 5367 5357 5346 5337 5328 5321 5315 5309 5305
5581 5580 5578 5574 5571 5568 5564 5559 5555 5550 5546 5542 5538 5532 5526 5520 5513 5507 5500 5494 5486 5479 5472 5463 5454 5444 5435 5425 5416 5406 5396 5387 5376 5366 5356 5345 5336 5327 5319 5311 5304 5299 5295 5290
5567 5565 5563 5560 5556 5552 5548 5544 5540 5536 5532 5527 5522 5516 5510 5504 5497 5490 5484 5478 5469 5461 5453 5444 5435 5426 5417 5407 5399 5388 5378 5367 5355 5344 5334 5326 5317 5309 5301 5294 5288 5283 5280 5275
5554 5551 5548 5544 5541 5537 5533 5530 5526 5522 5517 5511 5506 5500 5493 5487 5481 5474 5466 5459 5451 5443 5434 5426 5418 5409 5399 5389 5379 5369 5358 5345 5334 5324 5314 5306 5298 5290 5283 5277 5271 5265 5260 5256
5539 5536 5533 5530 5526 5523 5520 5516 5511 5506 5500 5494 5488 5482 5476 5469 5463 5455 5448 5441 5432 5424 5417 5409 5401 5391 5382 5371 5360 5349 5338 5327 5316 5306 5297 5289 5280 5273 5266 5259 5252 5245 5239 5234
5525 5522 5519 5515 5511 5507 5504 5499 5494 5488 5483 5478 5472 5465 5459 5452 5444 5436 5429 5423 5416 5409 5400 5392 5383 5373 5363 5352 5341 5331 5320 5309 5299 5290 5281 5273 5264 5256 5247 5240 5232 5224 5217 5211
5511 5507 5504 5499 5495 5491 5486 5481 5477 5472 5466 5460 5455 5449 5441 5433 5426 5419 5413 5407 5400 5392 5383 5374 5364 5355 5345 5334 5324 5313 5303 5294 5285 5276 5267 5258 5249 5240 5231 5221 5212 5204 5197 5191
5494 5491 5487 5482 5477 5472 5468 5464 5459 5454 5448 5441 5435 5428 5422 5416 5409 5403 5397 5390 5383 5375 5366 5357 5347 5336 5326 5316 5305 5295 5287 5279 5270 5262 5253 5245 5236 5226 5215 5206 5197 5191 5185 5180
5477 5473 5469 5465 5460 5455 5449 5444 5440 5434 5428 5421 5415 5410 5404 5398 5392 5386 5380 5375 5368 5358 5349 5339 5329 5318 5307 5297 5287 5280 5272 5265 5257 5249 5241 5233 5224 5214 5204 5196 5189 5184 5179 5174
Wind_Speed
22 21 22 25 24 24 26 22 23 15 20 16 22 23 25 26 27 25 25 27 32 35 36 40 44 47 48 44 40 41 48 49 51 50 51 52 53 54 56 59 63 66 69 72
26 25 27 30 31 23 22 24 24 18 18 21 26 26 25 26 29 30 32 33 36 40 43 46 48 50 41 44 47 49 51 51 50 50 51 52 53 56 59 62 67 68 73 74
32 32 33 34 25 26 24 28 26 23 20 22 25 26 27 28 31 34 37 39 41 42 44 47 49 50 47 48 49 50 50 50 50 50 51 54 57 61 66 68 66 70 74 78
31 30 33 21 24 25 22 23 23 23 22 23 25 26 28 31 34 37 38 41 43 45 47 49 48 47 48 50 49 50 50 49 48 51 55 58 64 67 70 69 67 72 74 78
30 28 28 22 22 23 22 23 22 22 22 24 26 28 30 32 34 38 41 44 46 48 49 48 47 48 49 47 49 49 47 47 51 56 58 65 57 70 80 73 75 73 75 77
25 25 25 19 21 22 23 24 22 22 24 26 26 27 31 34 37 41 44 46 48 50 49 47 48 47 48 48 48 46 48 52 55 50 58 69 61 60 77 75 73 74 75 70
22 22 21 18 20 22 23 20 21 21 23 24 27 30 34 37 40 43 46 48 48 46 48 49 49 51 50 48 46 49 52 55 57 58 61 62 62 64 69 72 72 71 66 67
18 17 15 16 17 17 16 17 18 21 24 28 31 34 38 41 43 45 45 45 45 47 47 49 51 50 47 46 47 51 55 58 58 59 60 60 62 66 69 71 69 65 61 52
14 12 14 14 13 14 15 18 23 27 30 34 36 38 41 44 45 46 46 46 47 48 50 51 51 48 47 48 52 55 57 59 59 58 60 62 65 68 71 70 65 59 56 55
16 15 16 17 17 20 23 26 29 32 35 38 40 43 45 47 47 48 48 48 50 52 53 52 49 48 50 54 57 59 60 59 59 60 63 67 70 72 71 66 61 58 57 58
20 20 24 25 28 29 31 34 36 39 42 44 45 46 47 48 48 48 49 50 52 53 51 49 49 52 56 58 60 63 61 60 62 65 69 72 73 71 68 63 60 59 58 61
26 28 29 31 33 36 39 41 43 46 47 49 49 50 51 51 49 50 52 54 53 51 50 51 54 57 60 62 64 61 61 64 68 70 72 73 72 69 66 63 60 60 61 60
31 32 34 35 37 40 43 45 47 49 49 50 51 53 53 51 52 53 54 54 53 52 54 55 58 61 63 63 61 62 65 68 71 73 74 73 71 69 65 60 61 62 65 64
37 38 39 41 42 45 48 49 50 50 51 53 54 52 52 52 54 55 55 55 55 55 57 60 62 63 63 63 64 67 70 73 74 74 73 72 69 66 64 62 60 58 62 68
43 44 46 47 48 50 51 51 51 52 53 53 53 52 52 54 56 57 56 55 55 58 61 63 64 64 64 66 68 72 74 76 77 76 74 72 68 65 64 64 63 63 65 68
48 50 50 50 51 50 52 54 53 53 54 54 53 53 55 57 57 55 54 56 61 63 63 64 64 65 67 70 73 75 78 78 77 75 71 66 65 65 65 67 69 71 72 70
49 50 49 49 50 54 55 54 54 53 54 54 54 56 58 55 53 54 59 63 62 62 62 63 64 68 71 74 77 79 78 77 74 69 68 68 69 71 71 73 74 73 69 63
46 44 51 53 58 56 53 52 53 54 55 56 57 55 52 53 56 62 63 63 63 62 63 65 69 72 76 78 80 78 76 71 68 70 68 67 69 72 74 72 67 63 59 51
46 50 54 55 53 51 51 52 54 56 57 54 51 52 56 60 63 64 62 61 62 63 66 70 73 76 76 76 74 72 67 68 72 72 71 73 74 71 67 64 61 54 47 46
52 51 50 50 50 51 53 56 58 55 51 51 54 57 63 65 66 61 60 62 64 67 69 72 75 74 73 71 69 68 69 73 74 75 75 72 67 65 62 59 53 49 46 46
43 44 46 50 52 55 55 54 51 51 54 57 60 64 67 63 60 61 63 65 68 71 74 73 69 69 68 67 70 73 75 77 78 74 69 66 66 62 57 53 51 50 48 47
45 48 50 51 51 53 50 48 51 55 59 63 65 62 60 60 62 63 66 69 71 70 67 62 63 67 69 72 74 76 78 75 71 69 68 64 60 56 53 53 53 52 51 50
50 50 50 52 52 49 50 54 59 63 63 61 59 60 61 63 65 69 71 70 67 61 60 64 68 70 72 73 77 77 74 73 69 64 61 59 56 55 56 56 55 53 53 53
51 52 52 53 55 57 60 63 63 61 59 60 61 63 64 66 67 67 63 60 58 60 65 67 73 74 76 78 78 76 75 68 62 61 60 58 57 58 58 56 58 57 52 48
54 56 57 59 61 61 59 59 59 59 61 63 64 66 66 64 61 60 58 60 62 66 70 74 76 77 79 79 78 76 71 62 60 60 58 56 57 57 59 59 55 49 44 40
57 59 59 57 56 57 58 60 62 63 64 66 66 65 60 58 58 60 62 64 67 72 74 76 78 81 82 82 76 68 61 58 58 56 54 55 55 58 56 51 44 38 34 32
54 55 55 57 59 61 64 66 68 68 67 65 62 59 57 59 60 62 66 70 72 74 76 79 81 83 84 72 62 58 55 54 52 51 52 52 55 51 46 39 34 31 29 28
Wind_Direction
245 242 248 255 255 247 259 264 266 261 247 236 245 256 266 275 286 293 298 299 297 298 302 306 308 308 309 302 297 292 297 303 303 305 306 306 306 305 304 305 305 305 306 306
250 250 250 252 260 260 253 252 258 257 243 249 259 263 269 279 292 303 301 297 300 304 305 306 306 308 299 300 298 300 301 304 306 306 305 305 304 305 306 306 308 307 306 306
254 256 257 257 263 256 245 247 252 251 252 257 262 272 285 294 296 294 293 295 296 296 298 302 304 301 297 296 300 302 304 304 304 304 303 305 308 308 309 308 310 306 306 306
253 253 251 256 250 251 250 248 252 255 260 266 270 277 281 282 283 288 292 295 298 301 301 299 297 296 299 302 303 301 302 304 303 303 307 310 309 309 311 312 307 305 304 305
253 249 253 251 252 247 245 248 250 256 264 268 270 274 279 284 289 292 294 296 299 298 296 296 297 300 300 298 299 301 303 304 308 309 305 316 311 305 310 308 306 306 304 304
251 255 256 247 250 242 243 249 260 266 268 271 277 281 285 290 292 293 294 297 295 293 295 298 297 297 300 302 302 304 306 306 308 309 304 308 309 290 300 305 307 305 303 307
254 253 252 243 239 242 246 258 260 264 271 278 278 282 286 288 289 291 291 291 292 295 297 299 302 303 303 303 302 303 304 310 307 304 304 304 305 302 304 305 305 304 303 304
243 247 243 235 236 242 248 261 271 275 276 280 286 288 287 289 292 294 295 295 295 297 299 300 300 301 300 300 302 303 305 306 306 304 303 304 304 305 306 305 307 306 308 310
232 238 239 241 249 260 268 275 278 282 285 286 289 294 298 299 298 297 297 297 299 300 301 301 301 299 299 300 303 305 305 305 304 303 305 306 307 306 309 309 307 305 306 309
242 250 260 267 271 275 280 284 287 291 295 299 301 301 301 300 300 300 299 299 300 300 300 300 298 299 301 304 305 305 305 304 305 307 306 306 310 311 310 307 305 304 306 309
256 264 271 277 281 285 286 288 292 298 302 303 303 302 302 302 301 300 299 299 299 299 299 297 298 301 303 305 306 307 307 305 305 306 308 311 311 309 307 305 303 304 305 307
265 272 277 283 288 293 295 296 298 299 301 303 303 303 303 303 301 300 300 301 301 300 298 300 302 304 306 307 308 306 304 304 306 308 310 311 309 307 306 304 304 304 304 304
267 273 280 285 288 290 293 295 298 299 301 301 302 304 304 302 301 302 302 303 301 299 300 301 303 306 306 307 304 301 302 304 307 309 310 309 307 305 304 303 303 304 304 304
271 278 284 286 287 289 291 294 297 299 298 301 303 301 300 300 301 301 302 300 298 299 301 303 304 305 304 303 302 302 304 307 308 309 308 306 305 304 304 303 302 302 302 303
277 280 282 284 287 289 291 294 295 295 298 298 297 297 298 298 300 301 300 299 300 302 302 303 303 303 302 302 302 304 307 308 309 308 306 305 305 304 303 302 302 302 301 300
276 278 280 282 284 288 291 291 294 295 295 296 297 298 299 300 300 299 299 299 300 301 303 303 302 301 302 303 305 307 309 309 308 308 308 307 305 304 303 302 302 302 302 302
271 274 279 281 286 287 289 291 292 293 294 296 297 298 299 298 298 297 297 299 301 302 302 301 300 301 303 305 307 308 309 308 308 308 307 305 304 304 304 303 302 302 302 301
273 271 272 279 282 285 287 289 291 292 294 296 297 297 297 298 296 298 300 302 303 302 302 301 301 302 304 307 309 309 308 308 307 309 308 307 307 306 304 304 304 303 303 302
269 271 274 277 281 285 286 288 290 292 294 295 295 297 296 295 297 301 303 302 301 301 301 301 304 306 308 308 307 309 308 306 308 310 309 309 308 307 306 306 305 304 303 302
268 271 278 284 284 284 287 290 292 293 292 292 295 295 290 292 299 301 300 300 299 300 302 303 305 308 309 309 310 311 310 310 310 311 310 309 308 308 307 305 304 302 301 300
284 282 280 282 286 289 289 289 288 288 290 292 289 287 294 299 299 298 298 299 300 302 304 307 308 310 311 312 313 314 313 313 312 311 310 309 309 308 306 303 301 299 297 295
280 284 287 288 286 287 286 283 283 285 284 286 293 298 297 297 297 297 299 300 303 305 307 309 314 315 313 313 314 316 316 315 314 313 312 311 309 308 306 304 302 300 297 294
286 285 282 282 285 279 275 274 278 283 292 296 296 296 296 297 298 299 301 304 306 307 308 312 316 315 314 315 317 318 318 317 315 314 314 313 311 310 308 306 304 301 298 295
279 280 282 279 277 274 272 278 288 293 295 295 295 296 297 298 299 302 304 305 306 308 312 313 315 316 317 318 318 318 319 317 316 315 315 313 312 312 311 310 309 307 302 295
280 277 275 274 276 284 289 291 292 292 293 294 295 296 298 301 302 304 304 306 309 310 311 314 315 316 317 316 316 317 317 315 315 315 314 314 315 316 315 315 313 310 306 300
269 273 281 286 289 289 290 290 291 292 293 294 297 299 300 301 302 303 305 306 307 310 313 313 315 316 315 316 315 313 313 313 315 316 317 318 319 320 319 318 317 316 316 315
283 286 288 288 289 289 290 291 292 294 297 299 300 302 305 305 304 304 304 305 308 310 312 314 315 316 316 316 314 312 312 313 315 318 320 321 324 324 325 325 324 324 324 324